Skip Page Navigation
NASA JPL Caltech
NASA Logo - Jet Propulsion Laboratory + View the NASA Portal
+ Center for Near-Earth Object Studies
JPL Home Earth Solar System Stars & Galaxies Technology
JPL Solar System Dynamics
BODIES ORBITS EPHEMERIDES TOOLS PHYSICAL DATA DISCOVERY FAQ SITE MAP
JPL Small-Body Database Browser
Search: [ help ]  
413164 (2002 NL59)
Classification: Main-belt Asteroid          SPK-ID: 2413164
Ephemeris | Orbit Diagram | Orbital Elements | Mission Design | Physical Parameters | Discovery Circumstances | Close-Approach Data ]

[ hide orbit diagram ]

For accurate long-term ephemerides, please instead use our Horizons system.This orbit viewer was implemented using two-body methods, and hence should not be used for determining accurate long-term trajectories (over several years or decades) or planetary encounter circumstances.


[ revert to old Java-based viewer ]

Orbital Elements at Epoch 2459000.5 (2020-May-31.0) TDB
Reference: JPL 16 (heliocentric ecliptic J2000)
 Element Value Uncertainty (1-sigma)   Units 
e .1613885373792088 5.79e-08  
a 3.167381202385401 2.998e-08 au
q 2.656202182810022 1.8568e-07 au
i 16.97370839636238 6.3552e-06 deg
node 137.6101968983861 2.0907e-05 deg
peri 207.5300838167547 2.8862e-05 deg
M 46.88739790241942 1.8312e-05 deg
tp 2458732.334712579109
(2019-Sep-05.83471258)
0.00010436 TDB
period 2058.964834696855
5.64
2.9233e-05
8.004e-08
d
yr
n .1748451425363966 2.4825e-09 deg/d
Q 3.67856022196078 3.4819e-08 au
  Orbit Determination Parameters
   # obs. used (total)      184  
   data-arc span      6293 days (17.23 yr)  
   first obs. used      2002-07-13  
   last obs. used      2019-10-05  
   planetary ephem.      DE431  
   SB-pert. ephem.      SB431-N16  
   condition code      0  
   norm. resid. RMS      .65654  
   source      ORB  
   producer      Otto Matic  
   solution date      2019-Nov-08 14:34:49  

Additional Information
 Earth MOID = 1.65826 au 
 Jupiter MOID = 1.73633 au 
 T_jup = 3.116 
[ show covariance matrix ]

Ephemeris | Orbit Diagram | Orbital Elements | Mission Design | Physical Parameters | Discovery Circumstances | Close-Approach Data ]

Physical Parameter Table
Parameter Symbol Value Units Sigma Reference Notes
absolute magnitude H 15.6   n/a MPO455941  

413164 (2002 NL59)          Discovered 2002-Jul-13 by Beijing Schmidt CCD Asteroid Program at Xinglong
Reference: Last Updated: 2014-11-10

[ show close-approach data ]
Ephemeris | Orbit Diagram | Orbital Elements | Mission Design | Physical Parameters | Discovery Circumstances | Close-Approach Data ]
ABOUT SSD CREDITS/AWARDS PRIVACY/COPYRIGHT GLOSSARY LINKS
FirstGov 2020-Aug-09 07:11 UT
(server date/time)  
NASA Home Page
Site Manager:   Ryan S. Park
Webmaster  Alan B. Chamberlin